COSMOS 1691

导读

**COSMOS 1691卫星摘要** COSMOS 1691是独联体(CIS)继承自苏联航天计划的卫星,于1985年10月9日发射。作为苏联“宇宙”系列卫星成员,该系列常涵盖军事侦察与空间科学试验任务,多数任务细节未公开。卫星进入近地轨道运行,旨在完成地球观测或空间环境探测任务,延续了苏联航天领域对近地空间持续探索的传统。

Basic Information
目录编号:
16139
目录名称:
COSMOS 1691
国际标识:
1985-094B
轨道中心:
EARTH
卫星名称:
COSMOS 1691
卫星全名:
--
卫星状态:
在轨 (已飞行14948 天)
发射日期:
1985-10-09 UTC
国别 :
俄罗斯(独联体) (CIS)
星等 :
--
This satellite is enrolled in the Space Conjunction Data Service (SCDS) and the current flight risk assessment level is: No High Risk
Orbit Information
数据来源 国际轨道数据 AOE轨道数据
星历时间 2026-09-12T06:21:27+0800
8小时前
查看轨道信息
2026-09-11T06:00:00+0800
1天前
查看轨道信息
半长轴 7790.874km 7790.887km
偏心率 0.0001309 0.0001336
轨道倾角 82.608° 82.605°
近地点辐角 68.255° 19.644°
升交点赤经 234.780° 235.427°
平近点角 317.906° 76.208°
近地点 1411.717km 1411.709km
远地点 1413.757km 1413.791km
周期 114.061分钟 114.062分钟
每日圈数 12.624772 12.624741
Detailed Information
使用方式:
暂无
2D Orbit Map
3D Orbit Map
Orbit Altitude Analysis Chart
Orbit Inclination Analysis Chart
Orbit Comprehensive Analysis Chart
View Comprehensive Chart
Miss Distance Evolution Trend with All Objects
Collision Probability Evolution Trend with All Objects